カタログに戻る

COSMOS 475

運用中軍事LEO
NORAD 5846·PAYLOAD·🇷🇺 Russia

打ち上げ Feb 25, 1972 から Plesetsk Cosmodrome

Loading…

次のパス (今後24時間)

TLE

最新Source: Space-Track

元期: Sep 14, 2026, 05:17 UTC

1 05846U 72009A   26257.22029056  .00000027  00000-0  50827-4 0  9994
2 05846  74.0518 342.4361 0023357 232.0172 156.3465 13.76425064739344

AllMySatでCOSMOS 475をリアルタイム追跡

Download on the App Store